Location: Unspecified
(0.0000°N, 0.0000°E)
Time: 12:39:58
(UTC+00:00)

Hubble Space Telescope - Pass Details

Date: 09 May 2026
Orbit: 473 x 476 km, 28.5° (Epoch: 18 May)

Event Time Altitude Azimuth Distance (km) Brightness Sun altitude
Rises 19:58:12 0° 293° (WNW) 2,499 5.4 -28.9°
Reaches altitude 10° 20:00:25 10° 288° (WNW) 1,625 4.1 -29.4°
Enters shadow 20:01:52 22° 280° (W) 1,082 3.0 -29.7°
